Theta_e
306 298 297 296 299 301 302 303 303 302 302 302 301 300 298 298 300 302 303 305 306 303 301 301 302 303 303 304 308 311 312 310 311 314 320 320 320 321 325 327 329 330 330 335 337 336 337 339 340 340 339 340 333 330 332 331 335 336 333 333 332 336 338 339 340 341 337 336 333 331 331 331 333 333 335 335 335 335 334 334 333 335 334 336 338 340
306 298 299 301 302 304 303 304 304 304 303 300 300 299 298 299 298 301 302 305 306 304 301 303 302 302 304 306 307 312 312 310 311 314 320 319 320 320 323 326 327 329 331 334 336 337 337 338 335 334 337 335 330 330 331 331 332 331 329 326 329 332 335 338 337 333 332 335 331 331 330 331 333 331 331 332 333 333 333 334 334 335 335 336 336 336
299 296 301 303 305 306 306 305 304 302 301 301 299 299 298 298 301 303 303 304 305 303 301 303 301 302 304 306 309 313 313 312 312 314 320 317 318 319 323 325 328 329 329 330 336 336 331 328 330 336 336 334 330 328 330 329 327 328 328 328 328 331 333 332 332 330 329 334 335 334 332 331 330 333 335 331 331 332 331 335 335 335 334 333 333 333
296 297 303 305 306 304 303 303 303 302 302 299 298 297 296 300 298 296 302 303 305 303 301 302 301 302 305 307 312 315 313 313 314 314 319 319 320 320 322 325 327 327 329 330 334 328 326 326 324 329 332 333 331 329 327 328 327 328 327 327 328 331 332 332 330 330 331 334 336 337 336 336 335 333 333 333 332 329 330 331 333 334 334 332 331 329
297 302 305 305 305 303 301 301 300 299 297 300 300 298 298 298 299 299 300 303 306 305 306 304 302 300 303 304 309 313 315 314 314 314 318 320 321 324 325 327 329 328 329 330 328 321 321 321 326 329 328 329 327 327 328 329 327 328 330 330 330 331 332 331 331 330 331 335 335 336 337 336 333 332 329 328 326 329 328 329 331 332 333 331 330 330
300 305 307 302 302 301 300 298 299 299 296 297 300 301 300 302 301 300 303 302 300 299 303 301 294 294 302 304 306 311 312 314 317 315 315 318 321 323 323 326 329 330 330 327 322 321 321 322 325 326 326 328 328 325 329 332 332 332 332 332 332 334 332 332 331 333 334 336 334 333 330 326 327 326 327 325 322 322 326 326 331 332 331 331 330 329
300 306 304 301 301 300 299 298 301 300 297 296 297 302 302 302 302 302 301 301 296 293 300 303 293 290 301 301 304 307 308 308 316 316 316 319 319 322 322 324 326 327 324 320 320 320 321 321 322 324 325 329 327 327 329 334 335 334 334 336 337 336 334 332 331 332 335 335 334 332 330 329 327 326 328 328 329 327 326 329 330 330 332 330 330 330
301 302 302 301 301 299 298 296 301 300 297 295 303 302 301 302 301 301 302 300 298 301 305 302 299 294 294 299 304 307 307 306 310 314 315 317 321 320 321 323 323 325 319 321 321 324 324 323 323 323 325 331 331 330 335 336 336 335 335 337 335 333 332 331 331 333 337 334 333 333 331 330 329 329 327 329 328 329 329 327 328 329 329 329 328 329
302 300 300 299 300 298 297 299 303 302 297 299 304 304 301 301 302 301 300 299 300 300 297 299 301 294 295 300 305 308 304 304 307 310 310 313 316 319 321 322 322 323 319 321 322 324 326 326 326 327 327 334 334 334 334 330 327 329 330 331 331 330 334 333 333 335 337 336 335 333 331 329 331 330 328 327 327 327 328 328 327 328 328 329 329 327
302 302 302 301 299 297 301 302 303 303 298 303 305 305 304 302 302 302 299 298 298 295 291 298 299 292 292 300 302 307 304 304 306 310 314 314 314 315 318 322 322 318 321 325 326 326 327 329 331 330 330 333 333 335 331 326 326 326 327 330 332 329 333 335 334 338 337 336 335 331 331 330 327 327 325 326 325 326 328 327 327 326 325 325 326 326
304 307 306 302 299 302 304 305 304 303 302 307 304 302 301 301 301 302 301 300 297 290 293 299 300 296 290 298 299 300 301 307 308 311 314 314 318 319 320 321 322 318 319 325 327 328 328 331 332 330 329 332 333 334 330 327 326 327 327 330 330 332 336 338 336 333 336 335 334 332 332 329 328 327 326 324 325 325 326 325 325 325 324 325 324 324
301 303 301 303 306 305 304 303 305 305 304 304 302 299 299 297 299 298 298 299 289 287 295 299 300 300 288 295 301 305 308 310 309 308 310 313 314 313 314 318 316 317 320 328 327 326 328 330 330 330 329 331 332 329 328 329 331 328 329 330 330 331 335 331 326 324 331 335 333 333 332 330 329 328 325 325 325 324 325 325 324 324 323 323 323 324
298 299 302 302 306 304 302 300 301 302 303 302 301 299 294 290 291 287 292 286 288 287 296 300 300 296 294 301 302 305 308 309 311 310 310 311 311 312 313 315 321 322 324 325 326 327 327 329 329 328 329 330 329 328 330 331 331 331 332 332 331 331 334 328 324 325 329 334 332 331 331 331 330 328 327 326 325 326 325 324 322 322 321 321 321 321
295 300 300 301 303 304 303 296 297 295 299 299 298 297 292 287 285 283 287 289 290 294 300 299 302 295 298 301 307 306 309 312 313 313 313 312 311 311 312 318 322 325 326 325 325 326 326 328 329 329 328 329 330 330 330 332 332 332 331 333 333 333 334 332 328 326 329 334 333 332 331 331 330 328 327 326 326 326 325 324 322 322 321 321 322 321
288 290 296 299 296 304 302 300 302 299 299 298 301 299 296 294 289 282 287 284 286 290 296 300 296 291 293 298 309 311 312 313 314 315 315 314 313 315 317 318 324 326 324 324 324 325 326 327 329 329 329 329 330 331 332 332 333 333 333 332 334 334 334 334 333 330 335 334 332 331 331 331 331 328 326 325 326 327 325 324 323 323 323 322 322 322
294 294 300 303 303 304 300 303 305 303 300 301 301 302 297 293 299 290 291 291 290 289 292 295 292 297 298 307 310 313 313 313 313 314 314 311 317 315 316 317 320 321 322 322 323 325 327 328 329 328 329 328 329 329 331 331 332 333 333 333 334 333 332 333 333 332 334 333 333 331 331 331 331 329 328 326 326 327 326 325 324 324 325 323 323 323
295 293 301 302 304 303 302 304 303 304 293 300 300 296 298 303 300 293 292 298 291 289 288 296 296 298 303 305 308 310 311 312 314 315 316 316 316 317 317 318 319 320 320 323 324 325 326 327 327 327 327 327 328 328 328 329 332 332 331 332 331 332 331 331 330 330 330 328 329 330 331 331 332 331 329 327 328 328 328 326 325 325 324 326 324 324
293 294 300 300 298 303 306 306 305 305 304 301 294 299 304 305 303 297 288 290 288 285 286 294 290 294 295 290 304 306 308 309 310 313 314 316 316 315 317 318 320 320 321 324 325 326 326 326 327 328 326 327 327 327 328 329 331 332 332 332 331 331 330 329 329 328 330 329 329 329 331 332 332 331 330 330 330 329 327 325 326 327 325 324 324 325
298 290 296 301 301 303 305 304 301 305 306 301 299 306 296 291 289 296 291 284 284 283 285 291 294 294 296 295 300 304 304 307 311 312 313 313 313 313 314 317 318 319 320 321 322 322 323 323 324 326 326 326 327 327 327 328 329 330 331 330 330 330 330 330 329 328 329 329 329 329 330 331 331 330 329 327 327 327 327 326 326 326 325 325 324 324
301 290 293 301 300 302 302 300 292 297 303 304 304 301 304 299 296 291 291 293 292 286 285 286 293 289 296 300 302 302 307 309 309 309 310 311 312 313 313 314 315 316 317 317 319 321 322 323 324 325 326 325 326 327 327 327 328 328 328 326 325 326 328 329 329 330 329 330 329 329 330 331 330 330 330 327 325 323 323 323 323 324 325 324 324 324
295 300 288 297 302 301 295 298 295 297 298 297 297 296 299 300 302 298 299 294 291 287 287 286 286 292 300 306 302 304 307 307 307 307 310 312 313 314 315 315 315 315 316 317 318 319 320 322 324 325 326 324 326 328 328 327 327 328 328 328 325 322 325 327 330 329 329 329 328 331 330 330 329 330 330 329 326 325 324 322 322 323 325 324 323 324
295 296 291 295 295 295 296 302 301 300 301 300 298 296 297 296 294 289 287 297 295 291 287 287 285 296 303 308 307 309 310 308 310 309 310 309 313 316 316 316 316 316 317 317 319 320 320 321 322 323 323 323 324 325 325 325 325 325 326 326 327 326 327 329 328 328 327 327 327 327 329 329 329 331 331 331 328 324 323 323 322 324 326 323 323 324
303 300 297 291 294 296 298 300 303 303 302 301 301 298 300 300 297 293 286 290 295 293 295 293 288 290 305 308 310 311 310 313 313 313 312 313 313 316 317 317 316 317 317 318 318 319 320 321 321 320 321 321 322 324 325 325 326 325 325 325 326 326 325 326 326 328 329 327 328 328 329 329 330 332 331 331 328 324 322 324 324 324 325 325 325 324
304 292 292 294 298 300 301 302 302 302 301 299 300 301 300 296 298 295 294 297 293 293 290 291 287 292 305 308 311 311 311 314 315 314 313 314 315 316 316 316 315 316 317 318 319 318 318 319 320 319 320 318 320 324 325 326 325 326 326 326 325 326 326 327 327 328 327 327 328 330 331 331 331 332 331 331 328 327 324 325 325 325 325 324 326 325
292 296 294 289 290 291 295 298 297 301 300 297 298 300 299 299 300 301 301 299 290 294 293 290 285 291 305 309 309 310 313 313 313 314 314 313 314 315 315 316 316 316 316 318 319 319 319 319 318 316 317 317 317 322 324 323 325 327 327 327 326 327 327 328 328 327 327 328 328 329 330 331 331 331 329 330 329 328 326 325 325 326 324 323 322 323
295 295 292 286 283 282 282 283 285 290 295 298 299 299 300 298 299 297 291 294 288 293 293 290 288 298 305 307 306 308 311 311 312 313 315 314 313 316 316 316 317 319 320 321 321 320 321 320 319 319 320 319 320 321 324 326 327 327 327 327 328 326 327 327 328 328 328 328 329 328 330 330 331 332 331 329 329 328 326 325 325 326 324 323 323 324
298 300 297 293 290 288 289 291 296 296 296 292 295 297 298 299 300 300 298 293 289 292 291 293 293 296 299 302 303 305 307 309 308 310 312 314 316 317 318 318 318 316 317 317 316 318 319 321 322 322 322 322 322 323 325 325 325 326 326 327 327 328 328 328 328 329 328 328 328 327 326 329 331 331 331 332 330 329 329 326 326 324 323 324 324 323
295 293 297 297 295 293 294 293 296 296 293 296 296 296 298 298 299 298 292 290 298 293 288 297 300 297 299 302 304 305 308 310 311 310 312 313 315 316 317 317 314 317 318 318 317 317 318 319 321 321 322 323 322 324 324 325 325 325 325 325 326 326 327 328 328 328 328 327 324 323 322 326 329 330 330 330 326 323 324 324 327 326 323 324 324 325
299 292 297 296 293 294 296 295 295 294 295 296 297 297 297 298 298 295 295 298 298 290 288 294 299 299 301 302 304 305 307 310 310 312 314 315 315 314 314 313 312 313 315 315 315 317 315 316 317 317 319 320 321 320 321 321 323 323 323 324 324 325 326 327 327 327 327 326 324 324 323 325 325 324 325 325 326 325 326 327 327 327 327 325 325 328
300 294 298 297 294 294 294 295 295 293 293 294 295 296 298 298 299 299 299 300 300 298 299 299 298 297 299 301 304 304 308 309 309 311 311 309 312 313 314 312 312 312 312 312 313 314 315 315 316 317 318 318 319 318 318 319 320 321 321 322 323 324 325 326 326 326 325 326 326 326 326 326 325 325 325 324 324 323 326 327 327 324 322 322 324 322
299 293 297 298 294 292 295 294 294 293 293 291 293 295 296 298 297 296 297 299 299 299 300 298 295 294 299 303 303 305 307 308 309 306 307 309 310 310 310 310 310 310 311 311 312 313 314 315 315 315 315 316 317 318 319 319 318 321 321 322 323 323 324 325 325 325 325 325 325 325 325 325 324 324 324 322 320 323 324 324 326 322 319 319 321 322
300 294 298 297 290 289 294 294 293 293 292 291 292 293 294 293 291 294 292 296 297 294 296 295 292 291 299 304 304 304 304 304 303 303 303 304 307 309 309 309 309 309 310 310 311 311 312 312 313 313 314 315 316 316 318 319 319 321 321 321 321 323 325 326 325 324 325 324 325 325 324 324 324 324 324 324 322 322 324 324 322 321 321 322 323 323
298 295 293 293 289 289 295 294 294 292 290 286 287 292 294 292 293 295 295 296 295 297 293 290 292 299 300 303 300 299 300 299 300 300 301 302 300 299 301 305 308 307 308 309 309 309 310 311 312 313 313 313 314 315 318 317 317 316 317 317 319 319 322 321 323 323 324 325 325 325 326 325 323 323 324 325 323 323 323 322 322 321 321 321 322 322
299 299 294 298 287 288 293 294 294 288 281 284 293 297 296 293 293 292 290 292 294 296 293 297 297 300 301 301 300 298 297 295 294 295 298 298 296 295 295 295 297 299 302 306 308 308 309 310 310 311 312 312 312 313 314 314 313 313 315 315 315 316 318 319 319 319 321 323 324 325 326 325 324 324 325 325 325 324 323 321 320 322 323 322 322 321
295 296 294 297 290 288 292 292 286 280 284 291 296 297 296 296 295 292 293 294 294 294 295 294 295 295 296 297 297 297 297 297 296 295 294 295 294 293 292 292 294 296 297 299 301 302 305 307 308 308 308 308 310 313 312 311 312 313 313 313 312 313 313 314 314 315 316 317 318 319 318 320 319 320 321 323 323 323 323 322 322 322 321 323 322 322
292 293 293 290 291 290 287 287 279 281 290 294 294 296 299 298 296 294 291 293 295 295 294 292 293 294 296 296 297 296 296 296 297 297 297 296 297 296 294 291 292 294 294 295 297 300 302 303 303 304 305 307 308 309 310 311 311 311 311 312 311 311 311 311 311 311 313 313 313 313 314 315 315 316 317 318 319 319 320 321 320 321 322 321 322 320
299 297 293 289 292 285 287 286 285 290 291 291 290 293 295 292 294 293 287 290 296 297 295 293 293 294 294 295 296 296 296 296 295 295 298 297 298 299 298 298 298 297 297 295 298 300 300 301 303 304 304 305 306 306 308 310 311 310 310 309 309 310 311 312 311 310 311 311 312 313 314 314 314 314 315 314 315 315 317 317 317 318 319 318 317 317
299 293 295 289 287 290 285 283 285 283 281 286 293 296 298 298 298 299 295 289 297 298 298 296 294 295 295 295 295 296 297 294 290 292 297 299 299 298 298 299 299 300 300 300 301 302 301 301 300 302 302 303 304 305 307 308 309 309 308 308 308 308 307 308 309 310 311 312 312 312 312 313 312 312 313 313 313 314 315 315 316 316 316 315 315 314
298 299 295 291 288 288 285 283 283 280 283 289 291 293 296 297 299 299 293 287 295 298 299 298 297 297 297 297 297 298 296 292 290 293 296 298 299 300 299 299 300 300 300 299 300 300 301 301 302 303 303 302 302 304 306 306 307 308 308 308 308 308 308 309 309 310 310 310 311 311 312 313 313 313 312 312 313 315 313 313 314 314 315 314 314 314
295 293 292 289 287 287 286 284 283 285 281 290 293 293 294 297 294 293 282 283 294 298 299 298 297 297 298 299 299 297 293 291 290 293 298 298 298 299 299 299 299 299 299 299 300 301 303 302 303 302 302 303 304 305 304 305 306 306 306 307 309 309 308 308 308 308 309 310 311 312 312 312 312 312 312 312 312 314 313 313 313 315 314 315 313 313
288 289 289 285 287 287 285 285 286 284 291 294 294 295 295 297 294 284 281 287 296 297 298 298 297 298 298 297 298 292 294 296 296 298 300 299 298 298 299 300 299 299 299 299 299 298 299 301 301 300 300 301 302 303 304 303 303 304 305 306 307 306 307 307 308 309 309 310 310 310 310 311 312 313 313 313 312 313 313 312 312 314 313 312 313 313
287 287 288 288 285 285 286 284 284 285 289 294 296 296 294 293 283 282 289 297 296 296 298 298 297 298 299 296 295 295 296 297 298 298 298 298 298 298 298 299 299 299 300 300 299 299 298 298 300 300 300 301 302 302 302 302 301 301 302 303 304 306 307 307 307 308 308 308 309 309 310 310 311 313 314 314 314 314 313 313 314 314 312 310 311 311
286 284 285 284 287 287 286 284 282 278 286 295 295 293 295 287 287 293 296 297 298 297 296 296 297 297 297 296 297 296 296 296 297 297 297 297 297 297 297 297 297 297 298 299 298 298 297 297 298 298 299 300 301 302 302 301 301 301 302 302 303 306 306 306 306 306 307 307 307 308 309 310 311 311 312 313 313 314 313 314 314 314 313 312 311 310
292 285 285 286 288 283 283 280 280 285 290 296 295 287 292 295 297 298 297 295 297 297 296 295 296 297 297 296 295 295 296 295 295 296 296 296 296 296 296 296 297 297 297 297 297 298 297 297 297 298 299 300 301 301 302 301 300 301 301 301 304 305 305 304 304 305 305 305 306 306 307 308 309 310 311 311 312 312 313 312 311 312 312 311 310 309
292 289 288 285 289 286 284 284 289 293 295 296 296 295 296 297 298 298 297 296 295 295 298 295 295 296 297 296 296 296 295 295 295 295 294 295 295 295 294 294 295 295 295 295 296 297 296 295 296 297 297 299 300 300 301 301 300 300 300 302 303 303 303 303 303 303 303 304 304 305 306 307 307 308 309 310 310 310 310 310 311 309 310 311 309 309
293 295 296 292 288 293 293 293 294 293 294 294 296 296 295 296 297 297 296 294 295 295 296 294 295 295 295 296 296 295 294 294 294 294 294 294 294 295 295 295 295 295 295 295 296 296 295 296 296 296 297 297 299 299 300 300 300 299 300 302 302 302 302 302 302 302 302 303 303 303 303 304 305 306 307 308 308 309 310 310 309 309 309 309 309 309
293 294 293 288 291 288 282 292 291 291 293 293 293 295 296 297 296 297 296 295 295 296 295 295 295 295 295 295 294 294 294 294 293 294 294 294 294 294 294 294 294 295 294 294 295 295 295 295 295 295 296 295 297 298 299 299 299 300 300 300 301 302 302 302 301 301 302 302 302 302 302 302 302 304 306 307 307 307 308 307 309 309 308 309 307 308
288 295 290 290 289 285 285 290 292 293 294 295 294 294 294 295 296 296 296 295 295 296 296 296 296 295 296 295 294 293 293 294 293 293 293 293 293 294 294 294 294 294 295 295 295 295 295 295 295 295 295 295 297 297 298 298 298 299 300 300 301 301 300 299 299 300 300 301 302 302 302 302 295 299 303 304 305 306 308 308 308 307 308 307 308 308
290 293 286 290 287 289 291 292 292 294 293 293 294 295 295 295 295 296 296 296 296 295 295 295 295 295 294 294 294 293 292 293 294 293 293 293 294 294 294 294 294 294 295 294 295 295 295 295 295 295 295 296 297 297 297 297 298 298 299 299 299 299 299 298 297 298 299 300 300 300 301 301 301 301 301 301 303 304 304 304 305 306 308 309 312 312
291 286 290 288 285 284 285 288 291 285 285 290 292 294 294 296 296 295 295 295 295 294 295 294 295 296 296 295 294 294 293 293 294 294 293 293 293 293 293 293 294 294 294 295 295 295 295 296 296 296 295 296 297 297 296 297 297 297 298 298 298 298 297 297 297 297 297 298 299 300 300 301 300 301 300 300 300 302 303 296 297 307 309 311 291 287
289 290 289 286 285 284 290 292 293 292 292 292 293 294 295 296 295 294 293 294 294 294 294 294 293 294 295 295 296 294 294 293 293 294 293 292 292 293 293 293 293 293 293 294 295 295 295 295 295 295 295 295 296 296 296 296 297 297 297 297 297 297 297 297 295 295 296 297 298 297 299 300 300 301 301 301 301 301 300 302 304 286 288 293 292 291
Wind_Speed
8 10 10 10 10 11 13 13 13 9 12 10 9 12 13 12 10 13 10 11 11 11 13 15 13 12 14 15 12 11 11 12 14 13 12 12 11 12 12 11 11 11 12 11 12 13 13 12 9 6 8 7 10 7 7 5 5 7 8 8 6 5 6 6 6 4 1 2 4 4 5 5 5 5 5 5 5 5 5 6 6 5 5 4 4 4
8 10 11 11 12 10 11 13 10 6 7 8 6 6 9 11 11 13 13 12 6 8 8 11 13 15 12 15 12 11 11 13 14 13 13 12 13 11 12 12 11 11 9 12 11 11 10 8 9 7 6 6 11 8 9 6 8 9 7 8 5 2 1 5 4 5 3 7 3 5 5 5 5 6 5 5 5 5 5 6 5 5 5 5 5 4
9 11 10 12 8 2 1 5 2 6 6 11 9 7 9 9 11 13 6 7 7 9 10 11 14 12 15 18 10 11 11 10 13 13 13 15 14 12 12 11 11 11 12 13 11 8 9 6 6 2 4 6 11 9 11 11 11 12 12 11 13 9 7 5 5 6 0 8 5 4 5 5 5 5 5 6 6 6 6 5 6 6 5 5 5 4
9 10 12 11 6 7 6 6 6 8 9 9 10 10 9 7 12 7 7 9 9 7 9 13 11 11 11 5 9 10 11 10 12 14 14 13 12 12 12 11 11 12 12 12 9 9 11 6 4 3 2 2 11 10 10 10 11 8 9 12 9 9 5 3 2 4 2 10 3 5 5 5 5 7 7 7 6 6 6 6 6 6 4 4 4 3
10 5 14 11 7 8 9 8 9 9 10 11 12 12 10 11 12 9 5 11 9 10 11 10 8 10 8 9 8 8 7 10 12 13 13 12 12 11 9 9 10 12 11 10 8 17 9 5 2 3 4 3 7 7 10 10 10 7 10 10 11 9 9 7 3 4 4 7 6 6 6 7 8 6 6 6 6 5 6 6 6 5 5 5 5 5
14 6 3 2 6 10 10 10 11 10 10 10 14 14 12 11 8 9 3 8 7 10 12 12 9 11 12 14 12 11 10 11 10 12 14 12 11 10 10 10 10 9 9 9 17 14 7 4 4 6 7 5 12 8 6 6 10 11 9 11 10 9 8 6 3 3 9 7 7 8 8 8 7 7 6 6 6 6 5 7 6 6 5 6 4 4
8 10 8 9 9 10 12 11 11 13 11 10 11 15 16 14 11 7 9 10 10 8 10 14 13 4 9 13 14 13 14 15 11 12 12 11 10 8 10 9 9 9 11 17 15 14 14 13 12 10 8 7 14 11 10 9 7 9 9 10 9 9 7 6 4 8 9 8 7 8 8 8 7 7 6 6 5 6 6 6 6 6 6 6 5 6
10 5 6 8 10 11 10 11 11 13 12 10 4 16 14 12 6 8 9 10 8 2 4 11 11 9 8 11 15 16 14 16 15 11 10 9 8 10 9 9 5 6 17 9 10 14 14 12 11 10 12 10 15 15 13 10 9 7 6 8 10 5 4 7 7 14 10 8 9 9 8 8 8 7 8 7 6 6 6 7 7 6 5 6 6 5
12 9 8 9 10 10 10 10 10 13 13 4 3 9 14 14 10 10 11 10 7 5 9 9 13 10 4 5 14 15 14 15 15 13 13 11 11 7 7 8 12 12 10 12 10 12 11 12 11 8 10 10 15 13 11 10 11 9 4 5 8 9 7 10 15 13 11 9 9 8 8 8 8 9 8 7 7 6 6 7 6 6 6 6 6 6
8 12 12 11 11 9 10 13 13 13 14 6 8 8 10 12 12 11 10 11 6 8 8 8 12 9 8 10 10 10 13 14 13 13 14 10 13 12 10 9 6 12 9 11 13 12 11 10 8 8 10 10 13 14 15 14 13 13 9 6 11 14 12 11 13 10 10 9 8 7 8 9 10 8 8 8 8 7 6 7 7 6 6 6 5 6
5 1 2 12 12 10 6 2 2 12 15 6 8 9 8 9 8 8 9 8 7 9 10 10 12 12 7 10 10 12 12 10 9 10 10 12 10 6 5 7 12 9 8 7 10 10 10 9 8 12 14 12 10 10 10 8 9 9 9 9 7 8 6 6 3 4 7 7 6 7 8 10 10 10 9 9 8 7 7 7 6 6 6 6 6 5
7 10 9 8 13 3 1 5 8 7 12 8 8 10 9 10 9 9 9 9 6 7 11 11 10 11 10 7 8 10 8 7 8 8 11 11 11 13 12 8 14 13 9 8 10 11 11 11 11 11 13 12 13 13 10 11 8 10 8 8 9 6 6 7 9 4 9 5 6 7 8 9 9 9 8 9 9 9 8 7 7 6 6 6 6 5
10 10 10 12 10 10 8 9 10 11 9 9 9 10 10 6 5 8 7 8 8 6 7 10 11 8 11 7 5 5 10 9 1 7 9 9 8 5 5 8 12 11 13 11 10 10 10 10 10 11 12 13 15 12 12 12 10 8 10 11 11 9 7 11 8 7 12 6 6 7 8 9 8 8 9 9 9 8 7 7 7 7 7 7 6 6
9 10 14 12 10 10 11 10 9 10 11 12 11 10 9 7 7 7 9 5 8 10 2 6 5 9 4 5 13 5 2 8 6 7 8 4 4 4 4 8 5 8 11 10 10 9 9 8 9 11 12 11 12 14 13 13 12 10 10 12 12 13 12 11 9 10 11 7 5 7 7 7 7 8 8 8 8 8 7 7 7 7 7 7 7 7
8 12 13 14 10 12 13 13 7 7 11 12 12 10 8 7 6 7 8 8 8 6 9 10 5 6 11 6 5 13 12 10 11 9 8 9 8 7 9 13 12 12 10 10 9 9 10 11 11 10 11 10 11 14 14 12 11 11 10 11 14 13 13 13 12 10 9 7 5 6 5 6 6 7 7 7 7 7 7 7 7 7 7 7 7 7
13 8 10 17 10 14 14 15 12 9 9 10 11 10 11 7 7 9 2 5 4 3 4 7 4 4 2 7 5 7 8 11 12 14 15 12 16 14 16 15 13 12 10 9 10 11 12 10 10 10 8 9 7 9 8 10 9 9 10 11 12 14 13 11 11 9 7 7 5 1 5 5 6 6 7 7 7 6 6 7 7 7 7 7 8 8
7 9 8 17 15 10 14 13 12 9 9 7 10 12 9 7 9 6 4 4 5 3 5 2 8 5 11 9 6 7 8 7 8 9 8 9 11 13 11 12 11 11 9 10 11 12 12 9 8 8 10 9 9 7 7 8 7 8 10 10 11 12 12 11 9 8 6 7 5 2 2 3 4 5 6 7 8 7 6 6 6 6 7 8 8 8
7 6 6 8 16 11 11 11 13 13 10 4 9 9 6 3 8 4 4 5 6 8 6 7 6 9 9 6 11 11 7 7 6 8 9 8 9 9 9 11 11 12 12 12 13 13 11 8 7 7 9 11 9 10 10 9 7 7 7 8 9 10 11 10 8 7 7 7 6 4 3 4 4 5 6 7 8 8 7 7 6 5 7 7 7 8
7 7 8 12 11 13 11 8 11 11 11 12 7 5 9 6 9 6 3 6 4 7 5 7 7 9 7 4 11 13 11 10 10 10 9 8 9 11 12 12 12 14 13 12 12 12 11 9 8 7 9 10 9 9 10 10 9 7 3 2 4 4 7 9 8 7 6 8 6 6 6 6 5 5 6 7 7 8 8 8 7 7 6 7 7 8
6 7 7 7 11 10 11 11 11 11 12 15 10 9 8 8 6 5 5 6 6 6 6 6 9 6 3 3 11 11 13 12 11 9 9 9 9 9 9 11 12 13 12 11 11 11 10 9 8 7 8 10 10 11 9 9 7 9 7 8 7 4 4 6 9 8 6 6 6 7 7 7 7 7 7 8 8 7 8 8 9 9 7 7 6 7
3 4 7 2 11 6 10 10 13 11 10 12 12 10 8 8 3 6 4 9 7 5 5 5 7 4 5 6 4 9 13 11 11 10 8 8 10 9 11 11 10 11 11 11 11 11 10 10 9 8 9 9 10 9 8 8 9 8 7 10 14 12 11 9 9 9 6 4 4 7 9 8 8 9 8 9 9 8 8 8 8 8 7 7 7 7
5 7 8 5 9 9 9 11 17 18 14 12 11 12 12 9 10 7 8 5 9 7 6 4 5 6 5 5 6 13 13 10 13 13 13 14 9 11 10 11 11 12 10 10 10 10 10 11 10 9 8 9 10 10 9 9 8 8 8 9 10 11 11 11 10 10 9 9 8 12 11 11 10 10 8 9 9 8 9 9 8 8 7 8 8 8
1 3 7 9 9 9 10 5 7 5 5 10 9 12 13 10 9 9 8 8 8 9 8 7 5 3 4 5 5 9 10 12 13 11 11 13 11 10 10 10 11 11 10 9 9 9 9 8 8 8 9 9 10 9 9 9 8 8 7 7 8 8 8 8 9 10 11 12 12 12 11 11 10 9 9 9 9 9 10 9 9 9 9 8 8 8
4 3 7 10 9 8 8 8 5 8 9 11 10 9 9 11 8 10 8 6 4 5 7 6 7 4 4 2 3 6 8 10 9 11 11 10 10 10 10 10 11 11 9 8 8 7 7 6 5 6 7 9 8 7 7 8 8 8 7 7 8 8 9 9 8 8 9 10 11 11 10 10 9 9 7 9 8 10 10 9 9 10 9 9 8 9
4 3 5 4 5 4 12 9 9 7 8 11 10 10 13 10 13 11 5 5 4 7 8 4 8 3 2 1 4 5 9 9 10 10 10 9 9 8 10 10 9 10 9 9 8 8 6 7 6 6 6 7 8 7 8 8 7 8 8 6 6 6 7 7 6 7 7 8 10 10 10 10 8 9 10 9 9 11 11 10 9 9 10 9 9 9
4 2 3 5 6 7 6 6 3 4 10 10 11 13 7 12 13 8 8 4 9 7 9 7 1 6 6 3 8 7 7 7 9 10 10 10 12 10 11 11 11 9 10 9 8 6 6 6 6 5 5 5 5 6 6 6 6 6 6 7 6 6 6 6 6 5 6 6 6 6 8 8 8 8 10 11 11 11 9 8 9 9 8 9 10 9
3 4 8 8 7 5 2 6 10 13 9 10 14 11 11 9 11 12 10 7 9 7 10 10 4 10 9 8 8 5 10 8 11 10 10 11 11 11 11 10 10 11 8 11 10 8 9 8 8 8 6 6 6 5 5 5 6 6 6 6 6 6 6 6 6 6 6 4 4 3 2 6 7 6 7 6 4 7 4 5 8 9 9 8 9 10
3 3 6 7 7 3 4 4 9 14 16 11 9 8 6 6 6 7 7 9 8 3 6 9 13 12 11 11 10 8 6 8 9 11 10 10 10 11 10 10 10 11 10 9 10 10 9 9 8 8 8 7 7 6 5 4 5 5 5 6 5 4 5 5 6 7 7 7 4 7 7 5 3 4 6 5 7 8 4 6 4 5 9 9 10 10
7 5 9 8 7 6 3 5 5 7 12 11 8 5 2 2 5 6 1 1 2 4 1 4 6 11 10 11 11 10 7 7 7 8 9 10 10 11 11 13 12 11 10 10 10 10 9 9 8 8 7 7 7 7 6 5 6 5 4 5 5 4 4 3 4 5 7 8 8 6 6 7 6 1 3 5 6 8 8 5 4 4 7 4 5 0
4 3 10 10 7 5 4 3 6 4 6 6 6 8 8 6 9 7 8 8 5 9 12 14 14 11 7 9 8 8 6 6 9 7 7 6 4 9 10 11 11 10 11 10 10 10 9 9 9 8 10 8 7 8 8 6 6 5 5 5 5 6 6 5 4 5 5 6 8 6 6 6 5 7 6 6 1 2 3 5 3 6 5 8 8 6
8 2 4 6 7 5 6 3 1 3 4 5 7 7 11 8 8 10 9 11 9 10 11 14 14 11 7 8 7 5 5 5 9 12 9 8 6 8 9 10 9 10 10 10 9 9 9 9 9 8 7 8 7 7 6 7 6 5 5 5 5 5 4 4 6 5 5 6 8 10 9 8 7 6 6 9 8 6 7 6 5 4 3 5 3 3
5 2 6 6 5 5 7 8 6 4 2 6 8 8 6 9 7 8 7 8 8 6 9 12 7 5 6 9 11 9 8 8 10 10 10 10 12 11 8 9 9 10 10 9 9 9 8 8 8 8 7 8 9 8 7 6 6 5 5 5 5 4 4 4 5 5 6 6 6 7 7 7 7 5 6 7 7 6 5 5 4 4 4 3 4 2
3 4 5 5 6 5 6 7 7 4 1 6 9 10 5 6 5 5 8 10 9 8 4 3 6 7 8 9 11 11 10 10 10 10 9 13 16 17 16 12 12 10 9 9 10 11 10 9 9 8 7 5 6 9 8 7 7 7 6 4 4 5 5 6 6 6 5 6 5 6 5 6 6 7 4 5 7 6 5 4 3 4 4 3 0 1
5 7 5 6 6 3 6 7 6 4 10 8 4 5 4 4 4 4 5 6 8 8 5 7 9 8 8 8 9 9 10 10 10 12 13 11 11 14 16 16 16 16 15 12 12 11 9 9 9 9 9 10 9 9 8 8 7 6 5 6 6 5 5 6 6 6 6 5 6 5 5 5 5 5 5 4 4 5 6 6 7 4 4 6 7 7
7 6 5 5 5 3 6 7 4 8 6 7 3 3 4 6 9 10 7 6 7 7 10 11 10 10 10 10 13 14 13 14 14 13 11 10 11 11 11 12 13 14 14 14 13 11 10 9 9 11 11 11 10 9 8 8 6 6 6 6 6 5 5 6 7 6 6 6 5 6 6 6 6 6 5 5 5 4 4 4 2 8 7 5 5 6
1 6 0 3 2 4 4 5 5 1 5 2 4 3 5 8 11 12 8 5 5 7 9 11 10 10 11 12 12 13 14 15 14 15 14 12 11 9 10 6 7 8 10 10 11 12 10 10 11 11 10 9 9 9 9 9 8 8 7 6 5 5 5 6 6 7 5 5 5 5 5 5 5 5 5 6 5 6 5 6 7 6 5 5 4 5
3 2 4 4 3 5 3 6 2 5 5 6 4 6 5 6 10 5 4 5 5 7 9 11 12 11 12 11 11 12 13 12 12 11 12 12 12 11 11 12 12 10 9 5 7 11 13 13 10 9 9 10 10 10 9 8 6 6 7 8 8 8 7 6 6 6 5 4 5 5 4 4 4 3 3 3 5 6 6 6 6 6 6 7 6 6
3 1 2 4 4 1 4 6 6 5 7 5 3 6 5 6 7 6 11 7 4 6 10 12 12 13 13 12 12 13 12 10 9 8 9 10 11 12 11 11 12 11 11 10 9 9 10 10 13 14 13 12 12 12 10 9 4 3 3 4 3 3 5 5 6 5 5 5 4 3 3 3 3 2 2 2 3 4 3 4 4 5 4 5 6 6
3 4 2 3 1 3 4 6 3 4 2 1 3 2 4 4 3 4 4 7 4 5 7 9 11 11 11 11 11 10 7 4 8 7 7 9 9 9 10 11 11 11 10 9 10 10 10 8 8 7 8 9 10 11 11 11 9 5 4 4 3 2 2 2 5 4 2 3 4 4 4 4 3 1 0 2 1 2 3 2 2 2 4 4 4 4
8 5 4 5 6 6 6 6 5 3 3 1 5 2 1 2 2 4 7 7 7 7 8 8 8 8 8 7 7 6 7 2 9 8 8 9 9 9 9 9 9 9 10 9 9 6 7 3 3 4 5 6 6 4 7 8 7 8 7 6 4 2 5 6 5 5 5 4 3 2 1 1 3 4 4 3 2 3 3 3 3 3 4 3 5 5
5 5 5 9 8 6 8 6 3 4 4 4 3 4 2 2 4 5 3 8 6 6 6 7 6 4 5 1 2 6 10 11 11 9 7 8 8 9 9 8 9 9 9 10 9 8 7 7 7 7 8 7 8 8 8 8 7 7 6 6 4 5 5 5 5 6 5 5 4 4 4 4 3 4 4 4 5 5 4 4 5 4 4 4 5 4
3 3 4 4 7 7 4 8 0 5 4 8 4 4 5 5 4 2 6 6 7 5 7 7 6 4 5 11 9 9 10 10 10 9 8 8 8 8 8 8 8 7 8 8 7 7 7 7 6 7 7 7 7 7 7 7 7 6 6 5 4 4 4 5 6 6 6 6 6 5 5 5 5 4 4 5 5 5 5 5 5 5 6 5 6 6
4 2 5 3 2 3 3 6 3 1 2 5 1 6 4 2 5 6 9 9 7 8 9 7 6 7 6 7 9 9 9 9 9 8 8 7 7 8 8 8 8 8 8 8 8 8 8 7 6 7 7 6 6 6 6 7 7 6 5 6 6 5 6 7 7 7 6 6 6 6 6 6 6 5 5 5 7 6 6 6 6 6 6 7 8 7
6 5 4 3 5 3 4 2 4 4 2 2 3 4 7 8 7 7 6 9 8 8 8 6 7 5 6 7 7 7 6 7 7 7 6 7 6 7 7 7 7 7 7 8 8 8 8 7 7 7 7 6 6 6 6 6 6 6 7 7 7 7 7 7 7 7 7 7 7 7 8 7 7 7 7 8 8 9 8 7 8 8 8 8 9 8
8 4 4 3 6 2 4 4 4 4 6 7 8 8 8 7 6 6 8 8 7 7 7 6 6 6 4 5 4 4 6 6 7 6 6 6 5 5 6 6 7 7 7 7 7 8 8 8 8 8 7 6 6 6 6 6 7 8 8 7 7 7 7 8 8 8 8 8 8 8 7 7 8 8 8 8 8 9 10 10 9 9 10 10 9 11
5 4 6 8 9 12 10 7 6 6 8 9 9 8 9 9 8 8 9 8 7 6 6 5 5 5 5 4 3 4 6 6 5 5 5 5 4 5 4 5 5 6 6 6 6 7 8 8 8 8 8 8 8 7 7 7 7 8 8 8 8 8 8 8 8 8 8 8 8 9 10 10 10 10 10 10 9 10 9 11 12 11 11 12 11 9
4 1 0 2 8 4 5 6 7 7 7 7 8 8 8 6 7 6 8 7 7 6 7 6 5 5 6 6 6 5 5 4 4 4 3 3 3 3 4 4 4 4 5 6 6 6 6 7 7 7 8 8 8 7 7 8 7 8 8 9 8 9 9 9 9 9 8 9 9 10 11 11 10 10 10 10 10 10 11 10 10 11 12 11 11 12
4 4 2 3 2 1 9 9 8 8 7 7 6 6 7 7 7 7 7 7 6 6 5 5 5 5 3 5 5 4 3 3 3 3 3 2 2 2 2 3 5 5 5 5 6 6 7 7 7 8 8 8 7 7 8 8 8 8 9 9 9 9 10 10 10 10 10 10 10 9 9 10 9 10 10 10 10 10 10 10 10 10 8 12 10 7
3 5 1 3 6 9 11 10 8 9 7 7 7 6 7 6 6 7 7 7 7 6 5 6 5 5 4 4 3 2 2 2 3 3 4 3 3 3 4 5 5 6 6 7 6 6 7 8 8 8 8 8 7 7 7 8 8 8 9 9 9 9 10 10 11 11 11 11 10 11 11 10 11 11 11 11 12 12 12 13 12 13 13 6 2 4
5 1 3 3 5 4 4 7 7 3 5 7 5 6 5 5 5 5 3 3 2 2 2 1 2 3 3 4 3 3 3 2 3 2 4 3 4 5 5 5 6 7 8 8 8 8 9 8 8 9 10 9 9 9 9 8 7 7 8 8 8 8 9 10 10 11 11 10 10 10 10 10 11 12 12 12 12 12 12 7 4 2 4 2 3 6
5 5 4 1 1 3 6 6 2 5 7 5 6 6 4 3 3 2 2 2 3 2 2 2 3 3 4 3 3 2 2 3 3 3 4 4 5 5 6 7 8 9 9 9 9 8 8 9 9 11 12 11 10 10 10 10 11 11 11 10 11 12 11 11 10 9 10 9 9 10 10 10 10 10 11 11 12 12 13 11 5 8 10 11 10 6
Wind_Direction
169 220 209 216 226 203 217 227 234 327 323 330 261 212 219 225 216 217 231 145 188 214 205 223 225 230 219 231 181 191 196 211 218 205 186 197 197 196 193 191 189 192 195 191 194 185 186 167 153 138 141 164 109 134 101 156 116 87 100 127 101 131 153 151 151 141 133 184 135 143 157 139 124 114 118 103 98 88 71 78 96 106 98 96 104 112
208 225 223 217 233 216 208 224 241 278 286 270 271 249 224 223 230 188 208 133 183 241 210 219 232 224 233 237 195 179 192 207 213 205 187 205 202 200 196 191 195 191 198 196 193 193 168 149 116 165 160 151 130 123 127 83 77 80 81 94 58 12 146 152 114 60 18 268 161 177 151 135 137 133 129 108 91 88 96 87 82 73 91 107 103 85
217 228 227 221 223 302 227 239 262 271 251 247 262 233 243 213 245 182 166 131 173 203 241 222 221 232 226 235 171 181 198 210 214 212 195 205 204 200 192 191 195 191 200 199 192 175 110 79 143 101 152 162 128 131 116 103 101 133 146 156 156 172 175 174 126 120 180 266 188 177 131 141 132 113 109 107 106 109 103 95 90 83 77 67 78 89
216 222 232 224 146 205 208 232 248 239 243 240 231 248 226 222 221 177 193 197 202 213 225 222 224 231 228 186 167 190 204 211 213 210 202 207 204 199 194 191 196 200 201 203 185 96 67 74 39 219 106 239 105 117 133 144 157 146 160 166 144 128 141 137 142 119 184 258 152 110 138 120 111 107 92 101 102 101 114 105 91 95 103 111 107 112
225 204 197 204 143 201 220 214 227 227 222 228 243 239 241 228 214 237 175 209 190 211 248 274 235 228 187 194 186 189 204 211 202 205 203 203 211 193 183 195 205 208 204 192 122 76 83 120 142 102 132 151 128 121 161 158 152 170 165 141 137 153 158 155 172 122 213 222 141 132 116 101 107 122 129 131 124 115 106 111 111 105 114 98 79 60
248 115 59 97 178 210 219 214 214 225 230 216 227 247 247 236 228 215 135 189 199 215 204 228 232 222 182 202 200 187 193 207 196 201 204 200 204 185 187 194 201 214 213 74 81 100 118 151 157 182 176 166 120 164 184 171 162 156 146 147 154 156 139 140 164 176 211 176 159 147 142 142 144 136 146 125 123 138 134 103 113 118 108 102 114 88
243 118 186 211 219 216 215 228 203 217 238 234 201 224 245 273 245 205 189 209 222 232 180 207 240 211 183 199 200 184 190 206 194 204 202 196 201 197 200 197 201 200 94 101 119 147 167 180 182 186 156 155 129 157 181 196 160 139 141 149 148 134 129 132 115 234 206 178 165 162 154 149 144 133 112 105 103 101 106 114 99 96 96 99 80 78
239 161 218 192 209 215 218 223 211 206 232 236 202 189 231 244 246 231 237 214 243 254 311 210 228 238 185 201 191 180 196 199 195 182 203 200 201 204 194 207 202 168 104 122 177 160 170 180 199 170 157 160 143 158 164 158 139 130 109 131 109 92 142 146 161 218 196 183 169 166 152 143 136 121 117 119 108 106 109 111 117 110 104 97 101 97
209 208 208 196 210 212 218 224 205 202 227 239 246 213 211 225 222 226 231 239 242 247 218 209 220 230 221 202 184 175 196 198 193 186 199 194 210 209 218 210 202 102 134 147 153 153 170 182 189 149 158 155 140 141 131 79 66 65 93 135 149 164 180 169 194 198 191 181 172 161 152 143 119 123 127 127 127 118 115 122 118 104 93 82 85 87
204 219 197 207 201 212 224 218 201 193 222 192 237 220 221 214 223 223 232 236 216 236 245 220 203 231 195 206 164 177 211 200 192 178 180 190 200 192 201 228 84 102 201 167 155 158 176 180 155 125 145 150 142 133 121 137 146 156 168 164 160 171 186 191 191 189 190 172 173 154 147 131 131 134 132 130 126 126 128 114 113 121 119 116 105 87
50 92 219 203 204 225 250 127 237 182 220 49 227 211 215 220 223 223 247 240 229 228 235 231 212 221 223 154 199 205 207 205 183 165 164 172 201 170 196 244 80 106 242 167 151 147 159 159 128 144 149 143 141 127 121 129 147 146 147 145 151 166 184 161 63 285 192 181 171 144 140 135 136 136 133 131 134 133 133 130 132 124 121 116 110 107
216 206 208 218 244 288 284 207 209 250 223 195 220 223 194 206 216 217 216 228 227 239 238 222 216 198 246 171 223 185 167 149 189 181 159 183 161 184 191 194 127 164 209 163 151 148 142 149 153 142 152 150 126 111 132 161 159 151 154 152 151 161 134 111 128 270 262 207 163 139 140 139 138 141 141 140 137 139 138 138 129 120 121 121 120 115
221 202 200 212 215 250 206 241 185 212 227 224 223 225 219 199 228 214 208 213 223 235 227 229 199 201 225 99 62 56 89 76 120 148 168 179 170 146 139 144 138 157 176 160 158 146 148 149 154 158 153 141 123 133 153 170 171 160 156 156 148 158 139 144 152 162 248 207 166 147 145 140 146 146 142 140 139 142 144 146 135 138 132 133 133 122
214 219 195 211 192 203 240 223 169 199 204 214 223 216 215 213 201 234 219 217 226 219 159 229 200 240 157 88 132 120 62 121 129 132 158 142 129 158 146 94 126 153 166 158 146 141 142 143 148 150 146 153 150 150 162 174 168 167 170 161 157 158 155 153 163 157 218 178 166 147 144 144 152 147 144 142 142 147 148 145 145 145 141 136 128 128
205 195 206 207 201 176 220 243 213 208 190 215 228 229 227 232 216 225 236 223 224 235 173 198 200 234 223 163 140 140 151 138 136 130 135 150 155 157 132 156 167 155 149 140 142 146 151 152 152 149 149 154 167 163 166 172 174 160 172 170 159 156 164 167 157 182 177 137 160 155 151 154 161 150 148 143 145 149 148 148 155 145 143 136 136 129
220 233 191 200 223 175 213 223 255 219 210 209 225 227 231 217 205 252 52 329 357 264 186 194 221 202 251 120 143 138 138 147 143 148 148 168 140 149 149 153 153 148 150 155 154 151 149 155 164 163 150 146 152 157 161 168 164 169 170 172 167 156 159 156 144 147 122 109 95 105 162 161 164 156 147 141 146 143 146 149 150 145 144 143 134 130
212 228 206 184 211 213 205 212 222 246 237 169 219 225 226 227 241 242 182 183 132 267 256 188 213 173 133 151 173 170 151 121 117 111 114 117 122 132 128 127 129 124 135 131 128 130 138 162 155 150 161 153 134 142 162 179 177 166 162 165 161 152 151 150 151 151 128 103 103 73 189 174 171 153 139 135 136 134 131 135 144 153 148 139 141 136
263 233 161 184 186 213 230 224 234 211 248 141 243 237 246 306 303 272 270 157 221 234 228 213 206 219 195 194 170 173 176 127 125 105 85 99 94 79 95 105 105 105 110 118 125 129 136 157 161 139 152 158 147 144 146 151 170 169 166 164 157 147 151 152 151 149 149 129 145 167 200 184 175 145 132 137 142 140 145 149 152 142 144 152 147 149
241 267 224 195 219 202 205 245 243 246 238 253 234 198 246 184 217 223 257 245 229 222 244 211 204 245 229 190 172 173 177 161 128 108 120 96 97 111 105 103 110 107 108 112 121 127 136 147 156 150 147 150 141 129 124 130 136 142 144 122 79 118 144 154 145 159 159 155 160 175 193 185 177 166 149 151 150 152 158 157 149 152 156 153 157 154
187 244 228 195 233 189 197 206 232 213 214 241 267 262 218 260 251 233 211 251 235 237 219 235 214 227 274 211 163 208 155 128 134 145 121 124 114 111 116 113 116 113 113 115 119 125 133 139 139 139 136 146 140 132 123 118 127 138 148 134 132 126 141 174 159 158 156 154 167 185 184 188 185 177 167 159 161 164 164 161 155 154 166 161 163 163
208 217 249 190 234 227 211 198 225 223 215 203 218 239 222 222 243 257 230 240 235 244 235 231 226 165 59 0 215 87 107 127 128 132 129 118 128 124 113 118 117 114 113 115 117 119 128 132 140 143 144 145 140 122 121 122 126 131 145 144 143 162 175 174 163 153 152 152 202 216 189 182 195 185 172 168 167 167 163 164 160 162 165 164 174 171
228 196 230 241 237 218 245 214 217 225 225 219 217 223 233 218 211 218 229 234 253 237 242 225 220 73 64 333 113 126 129 151 151 167 155 148 143 116 115 112 109 97 102 114 119 127 131 127 128 126 134 139 135 128 119 123 127 136 142 140 139 153 167 162 162 155 161 158 206 207 193 181 196 184 173 170 167 168 164 168 171 169 175 174 174 179
306 278 250 223 218 234 238 17 296 256 282 271 234 219 226 243 233 236 243 214 222 236 260 248 264 111 359 352 92 140 144 151 134 134 124 120 129 122 115 113 114 115 126 128 132 136 131 133 134 140 134 135 127 115 122 136 132 131 133 142 150 150 153 160 164 163 167 170 191 200 189 185 187 178 173 168 169 175 173 175 176 177 180 184 173 185
138 233 238 255 258 298 290 271 303 279 271 253 250 266 230 230 244 247 258 357 315 233 232 237 242 105 92 31 68 140 159 125 131 127 122 118 121 123 122 121 122 125 123 131 137 132 135 134 140 137 131 132 115 125 131 120 124 127 138 154 161 158 158 157 168 162 174 178 188 188 188 181 182 174 169 170 178 176 181 175 180 184 185 187 181 183
209 160 276 261 258 257 266 215 232 224 244 243 244 228 242 243 239 256 223 185 242 249 274 253 249 136 97 110 115 154 138 126 123 126 114 117 119 126 129 127 128 133 142 142 140 140 147 152 159 157 151 140 144 139 123 133 144 138 141 138 139 155 159 155 162 165 172 181 186 188 190 183 183 178 169 180 192 183 182 180 182 185 189 187 189 185
233 170 215 252 250 248 243 253 266 260 237 229 238 247 270 252 251 255 245 237 243 236 259 252 144 91 114 145 124 142 117 127 120 100 117 142 138 142 131 135 131 129 135 134 113 126 144 157 162 151 156 150 129 124 117 117 124 115 124 124 131 147 163 156 166 177 176 187 190 188 190 182 181 184 177 184 191 184 184 179 182 185 197 191 192 190
207 164 219 225 244 242 209 280 298 311 300 263 235 229 246 251 251 258 267 255 248 233 234 237 206 150 138 141 123 168 149 174 129 124 142 127 123 118 124 131 134 134 143 131 138 152 154 145 137 142 141 126 121 127 120 112 106 114 121 136 152 152 156 165 172 174 176 154 144 152 285 199 184 189 184 169 80 22 336 212 194 192 200 194 202 191
183 193 166 165 175 195 156 257 295 323 330 266 235 216 235 231 214 245 249 252 277 314 246 347 150 140 139 137 136 134 89 119 122 136 136 123 127 133 130 121 119 120 122 129 138 131 119 117 118 123 121 129 128 117 105 120 112 118 124 127 127 133 148 165 167 164 157 143 135 145 176 268 255 169 160 122 117 129 201 278 301 242 211 200 208 199
206 205 162 162 148 134 85 91 58 360 329 4 21 32 28 205 196 192 65 337 283 255 216 31 35 112 126 123 110 84 123 100 118 119 126 124 127 134 143 138 141 138 131 122 120 119 128 122 125 126 124 118 120 115 119 128 122 114 122 112 121 141 147 175 175 163 157 155 156 165 150 184 181 7 183 123 148 168 183 204 204 255 312 263 222 237
229 215 164 204 178 170 154 95 53 63 347 351 7 2 17 62 72 78 65 49 80 97 106 117 107 79 94 83 71 67 83 88 95 100 104 102 176 129 145 132 130 130 126 128 125 123 125 124 126 130 125 132 132 135 141 128 113 123 133 131 139 153 152 155 163 163 157 158 146 144 171 164 152 176 180 115 90 319 243 198 136 65 37 352 7 34
247 105 168 192 212 202 193 203 184 62 357 328 309 347 348 2 59 49 55 28 81 94 101 100 97 93 65 90 101 96 72 86 76 58 53 117 204 154 127 117 116 120 119 123 121 122 126 131 122 120 117 112 113 96 89 119 141 133 122 135 142 134 140 153 150 147 147 138 139 153 167 158 171 156 147 144 178 205 231 217 107 103 140 181 172 234
221 140 184 185 227 216 209 210 201 212 351 311 304 300 331 354 18 22 43 14 33 74 137 110 93 100 127 120 116 97 94 87 78 62 64 58 67 65 87 106 115 114 114 119 118 115 105 99 105 105 125 138 124 120 114 99 102 112 124 123 106 88 107 130 131 126 122 123 127 131 130 133 136 134 146 156 144 155 203 127 131 191 228 202 186 195
229 163 191 187 223 236 182 208 194 159 251 271 256 248 107 75 73 51 40 27 22 352 18 120 78 97 114 119 108 90 80 65 60 69 54 59 46 42 43 55 69 74 94 104 102 99 90 91 91 91 79 80 110 131 131 121 104 87 77 64 69 120 137 136 118 103 110 112 118 122 125 132 139 138 147 128 144 170 192 195 147 173 175 226 108 198
231 212 219 197 240 240 161 168 168 199 225 239 52 91 123 147 152 75 51 39 36 33 58 75 102 102 106 116 110 99 92 77 65 47 42 46 53 49 42 34 32 42 43 54 69 69 71 74 81 79 75 78 75 60 74 76 83 86 87 101 107 100 93 94 115 130 127 130 126 125 125 124 128 137 138 146 151 168 180 167 178 175 184 178 178 194
226 230 241 219 220 232 152 152 197 227 229 57 170 107 94 102 113 101 95 78 89 91 94 91 93 95 91 92 99 99 95 97 94 81 61 49 54 60 52 35 29 29 36 39 42 47 54 63 55 46 41 41 44 53 65 68 74 83 83 77 75 73 91 102 97 93 94 96 104 120 145 148 143 139 141 149 158 154 156 127 148 173 179 183 182 174
232 236 213 306 177 105 146 183 213 182 71 154 104 149 130 136 131 110 83 79 106 116 113 107 111 112 110 107 106 105 101 96 87 89 105 120 121 108 89 67 53 49 39 20 16 22 34 47 44 37 33 26 30 35 34 42 41 47 59 62 72 78 74 79 85 89 93 101 102 101 100 103 110 118 146 145 146 138 140 138 159 157 164 155 150 158
321 139 214 225 184 208 210 210 194 99 152 126 140 146 180 161 176 202 175 117 118 141 132 128 128 126 122 124 124 119 114 104 92 89 89 91 90 90 104 122 134 136 117 80 35 22 12 12 36 51 45 35 26 25 16 6 26 23 27 30 32 38 52 60 74 79 71 70 69 70 82 93 113 101 122 133 139 141 140 143 150 148 159 160 159 162
355 308 27 231 201 232 259 239 182 185 235 159 89 81 16 21 18 33 103 101 105 116 130 136 138 140 139 137 142 147 146 112 98 90 83 88 95 98 90 79 68 64 69 81 88 76 45 25 18 14 20 27 24 18 12 342 9 54 45 55 46 53 47 29 40 32 43 72 95 103 88 84 85 124 115 152 172 151 144 145 152 153 157 166 159 170
212 234 273 274 245 226 239 267 248 249 61 78 91 11 25 2 323 335 219 134 140 140 138 137 135 140 141 149 148 171 211 144 106 105 93 81 72 72 80 78 85 84 73 64 52 42 41 44 48 40 30 36 23 1 357 356 7 24 54 54 36 341 109 67 38 27 39 9 4 359 39 7 29 81 125 288 19 113 159 177 174 183 173 194 187 183
206 207 208 233 258 241 249 250 265 49 100 69 79 10 22 350 357 270 219 161 156 159 160 143 146 145 145 147 152 58 17 206 129 106 99 91 85 71 62 64 59 63 72 64 54 74 127 145 95 74 49 44 43 30 13 4 10 17 13 17 7 31 33 25 359 342 345 338 345 330 296 222 266 302 298 278 254 203 242 254 249 233 220 215 220 196
222 239 220 239 237 235 237 251 127 119 90 66 41 345 66 216 271 208 239 113 160 141 178 126 132 124 102 188 43 83 66 60 89 97 93 87 76 70 66 52 52 47 48 46 46 23 22 34 32 24 20 25 11 13 13 6 360 1 13 4 38 35 12 355 343 333 334 323 305 291 293 285 259 251 252 263 264 259 232 247 246 222 225 234 242 231
227 245 245 243 244 248 234 240 145 73 10 340 335 9 3 291 201 126 102 128 116 117 56 77 109 105 119 82 74 78 85 86 94 92 86 79 68 58 46 43 38 42 41 44 43 42 12 3 17 19 12 13 5 5 1 360 351 341 356 337 356 12 345 334 337 323 322 318 315 323 322 318 310 303 277 271 275 252 235 228 218 208 219 230 241 226
24 325 259 249 311 259 247 249 160 122 80 313 359 131 334 351 80 122 132 116 125 106 111 104 103 101 96 93 92 97 92 82 83 77 68 62 48 40 32 29 24 19 20 18 12 33 10 354 4 3 351 350 354 354 349 347 336 332 327 328 328 334 333 328 320 319 323 322 318 313 306 297 286 279 278 264 260 263 247 227 214 209 219 218 226 223
5 266 272 73 10 303 304 345 52 56 72 72 301 61 58 75 105 116 131 121 111 113 108 100 85 90 106 119 113 91 86 90 73 60 58 48 38 31 23 22 18 8 10 7 3 12 356 348 351 341 339 335 338 338 337 329 325 323 324 311 321 322 315 309 310 313 310 307 302 298 290 287 277 263 252 256 252 246 244 237 241 230 222 219 224 219
24 53 19 50 31 7 58 97 107 69 65 56 60 88 99 101 90 77 73 95 108 98 96 101 94 77 78 100 94 94 83 59 57 51 41 33 25 26 9 8 14 7 1 358 351 3 346 340 335 331 326 328 331 327 326 325 313 310 304 308 305 305 304 304 302 297 293 290 286 286 286 281 278 280 278 267 251 244 240 240 234 236 236 233 230 236
97 64 95 90 95 93 77 83 103 90 80 76 72 74 77 71 63 85 88 91 73 78 77 95 102 93 77 45 98 83 52 45 39 36 26 20 7 15 9 2 10 1 355 347 344 355 337 331 329 322 328 325 327 322 313 308 305 300 299 300 300 296 294 291 288 287 284 283 282 279 276 273 272 267 261 257 259 257 250 243 239 236 235 239 236 235
66 9 196 108 147 173 91 108 98 106 108 98 94 93 86 84 84 83 93 93 97 93 86 73 75 70 58 57 53 48 55 42 35 30 17 11 9 4 356 356 360 349 345 337 341 332 327 328 322 326 324 319 316 316 311 308 302 298 298 296 297 297 294 293 288 285 280 276 275 272 267 267 263 263 261 258 251 249 252 250 244 243 240 239 247 244
104 341 87 124 118 126 123 125 119 111 115 115 113 106 105 102 99 99 99 104 107 110 107 115 113 90 84 73 44 39 40 59 31 16 352 355 6 351 356 358 339 338 329 325 315 323 312 312 314 315 314 311 313 310 308 303 302 301 303 303 302 299 295 288 285 282 279 279 279 277 275 269 272 271 264 265 266 264 255 247 253 260 259 251 240 250
15 253 324 45 95 109 121 133 141 133 124 120 102 89 88 102 115 119 122 128 137 104 91 77 57 49 52 56 57 29 17 38 47 4 339 338 350 353 3 341 330 322 320 316 322 313 307 309 308 305 299 296 296 293 294 293 292 294 295 297 295 293 291 290 288 282 276 274 273 271 271 272 269 263 259 253 247 243 249 257 250 246 243 260 302 236
266 289 96 184 136 150 142 145 147 150 157 135 119 99 93 92 100 106 114 108 83 79 64 334 141 111 133 85 14 9 350 14 38 4 334 331 347 1 337 334 327 331 326 326 322 316 310 303 302 301 301 302 307 304 297 293 291 293 291 287 287 293 294 291 287 285 282 275 270 267 265 263 260 258 255 254 254 254 251 222 205 215 253 194 71 67
7 25 336 330 297 125 121 127 115 83 95 95 110 122 131 123 121 114 81 63 71 73 28 2 9 12 354 29 72 354 8 15 2 355 334 345 346 342 339 335 338 331 324 319 313 308 309 309 303 301 306 309 307 303 299 295 294 290 290 292 289 283 278 274 278 290 288 282 271 269 270 267 264 262 260 257 253 250 249 249 178 82 75 94 122 113